sat.trackr.live / text

‹ back to catalog

STARLINK-34893

NORAD 65752 · 2025-216U

PAYLOAD ACTIVE UNKNOWN

§ Identity

Operator
Country
US
Launch date
2025-09-25
Launch site
AFETR
Launch vehicle
Mass (kg)
RCS (m²)

Purposes: comms

External: N2YO · Heavens-Above · Gunter

§ Orbital elements

Epoch: 2026-09-20T09:19:26.279904Z

Period
93.85 min
Inclination
53.1575°
Eccentricity
0.0000841
Mean motion
15.34393571 rev/d
Perigee alt
462.1 km
Apogee alt
463.3 km
Semi-major
6,840.9 km
B*
5.3577e-4
RAAN
146.3555°
Arg perigee
109.0510°
Mean anomaly
251.0584°
Rev number
5,635

§ Raw data

STARLINK-348931 65752U 25216U   26263.38849861  .00017765  00000+0  53577-3 0  99922 65752  53.1575 146.3555 0000841 109.0510 251.0584 15.34393571 56356

JSON: /api/v1/satellites/65752 · /tle

For live sub-satellite position, see the globe view (requires WebGL).

§ Visibility from observer

Set your observer location to see the next 7 days of passes ≥ 10°. The values pass through the URL so the page stays shareable.

No JS? Fill the form by hand. The geolocation button needs JavaScript.